Flag Weather past 2 weeks in Youngstown, Ohio, U.S.A.

Now
44 °F

Mostly cloudy.


Feels Like: 42 °F
Forecast: 40 / 48 °F
Wind: 5 mph from Southwest

Location: Youngstown-Warren Regional Airport

Current Time: Oct 31, 2014 at 11:04:05 AM

Latest Report: Oct 31, 2014 at 9:51 AM


Visibility: 10 mi

Pressure: 29.95 "Hg

Humidity: 82%

Dew point: 39 °F

Location of YoungstownLocation

Historic Weather in Youngstown — Graph

°F

Youngstown temperature yesterday

Maximum temperature yesterday: 50 °F (at 2:51 PM)
Minimum temperature yesterday: 42 °F (at 3:51 AM)
Average temperature yesterday: 45 °F

Past Weeks' High & Low Weather Summary

 TemperatureHumidityPressure
High74 °F (Oct 28, 2:51 PM)97% (Oct 16, 7:51 PM)30.24 "Hg (Oct 16, 7:51 PM)
Low32 °F (Oct 27, 7:51 AM)29% (Oct 27, 1:51 PM)29.57 "Hg (Oct 17, 2:51 PM)
Average51 °F74%29.95 "Hg
* Reported Oct 16 9:51 AM — Oct 31 9:51 AM, Youngstown, Weather by CustomWeather, © 2014

Note: Actual official high and low records may vary slightly from our data, if they occured in-between our weather recording intervals... More about our weather records

Advertising

Youngstown weather history for previous 24 hours

 ConditionsComfort  
Time TempWeatherWind HumidityBarometerVisibility
9:51 AM
Oct 31
44 °FMostly cloudy.5 mph82%29.95 "Hg10 mi
8:51 AM43 °FLight rain. Overcast.3 mph82%29.96 "Hg10 mi
7:51 AM43 °FOvercast.5 mph79%29.95 "Hg10 mi
6:51 AM43 °FOvercast.5 mph79%29.96 "Hg10 mi
5:51 AM43 °FOvercast.6 mph79%29.97 "Hg10 mi
4:51 AM43 °FOvercast.5 mph79%29.98 "Hg10 mi
3:51 AM42 °FOvercast.3 mph85%30.00 "Hg10 mi
2:51 AM42 °FOvercast.No wind85%30.01 "Hg10 mi
1:51 AM42 °FOvercast.No wind85%30.02 "Hg10 mi
12:51 AM42 °FOvercast.3 mph82%30.03 "Hg10 mi
11:51 PM
Oct 30
43 °FOvercast.No wind82%30.05 "Hg10 mi
10:51 PM44 °FOvercast.3 mph76%30.06 "Hg10 mi
9:51 PM45 °FOvercast.5 mph74%30.06 "Hg10 mi
8:51 PM45 °FOvercast.3 mph74%30.07 "Hg10 mi
7:51 PM46 °FOvercast.No wind68%30.07 "Hg10 mi
6:51 PM46 °FOvercast.5 mph68%30.08 "Hg10 mi
5:51 PM47 °FOvercast.5 mph66%30.07 "Hg10 mi
4:51 PM48 °FOvercast.5 mph59%30.07 "Hg10 mi
3:51 PM48 °FOvercast.8 mph61%30.08 "Hg10 mi
2:51 PM50 °FOvercast.7 mph54%30.08 "Hg10 mi
1:51 PM49 °FOvercast.5 mph59%30.09 "Hg10 mi
12:51 PM48 °FMore clouds than sun.7 mph66%30.11 "Hg10 mi
11:51 AM48 °FMostly cloudy.9 mph71%30.11 "Hg10 mi
Weather by CustomWeather, © 2014

See weather overviewHow to use our weather pages